West Palm Beach, FL

7:34 AM EST on February 06, 2016 (GMT -0500)
Palm Beach International

Weather History for KPBI - October, 2012

Change the Weather History Date:

Friday, October 12, 2012

  Actual Average Record
Temperature  
Mean Temperature 82 °F 79 °F  
Max Temperature 86 °F 86 °F 93 °F (1946)
Min Temperature 78 °F 73 °F 59 °F (1903)
Degree Days  
Heating Degree Days 0 0  
Month to date heating degree days 0 0  
Since 1 July heating degree days 0 0  
Cooling Degree Days 17 14  
Month to date cooling degree days 211 179  
Year to date cooling degree days 3628 3387  
Growing Degree Days 32 (Base 50)    
Moisture  
Dew Point 63 °F    
Average Humidity 53    
Maximum Humidity 62    
Minimum Humidity 44    
Precipitation  
Precipitation 0.00 in 0.17 in 4.70 in (1947)
Month to date precipitation 2.56 2.31  
Year to date precipitation 69.96 51.38  
Snow  
Snow 0.00 in - - ()
Month to date snowfall 0.0  
Since 1 July snowfall 0.0  
Since 1 September snowfall 0.0  
Snow Depth 0.00 in    
Sea Level Pressure  
Sea Level Pressure 30.08 in    
Wind  
Wind Speed 13 mph (NNE)    
Max Wind Speed 24 mph    
Max Gust Speed 30 mph    
Visibility 10 miles    
Events      
T = Trace of Precipitation, MM = Missing Value Source: NWS Daily Summary

Daily Weather History Graph

Daily Weather History Graph

Search for Another Location

Airport or City:

Trip Planner

Search our weather history database for the weather conditions in past years. The results will help you decide how hot, cold, wet, or windy it might be!

Date:

Astronomy

Oct. 12, 2012 Rise Set
Actual Time 7:18 AM EDT 6:54 PM EDT
Civil Twilight 6:55 AM EDT 7:17 PM EDT
Nautical Twilight 6:28 AM EDT 7:44 PM EDT
Astronomical Twilight 6:01 AM EDT 8:11 PM EDT
Moon 4:15 AM EDT (10/12) 4:51 PM EDT (10/12)
Length of Visible Light 12h 22m
Length of Day
11h 36m
Waning Crescent, 11% of the Moon is Illuminated
Oct 12
Waning Crescent
Oct 15
New
Oct 21
First Quarter
Oct 29
Full
Nov 6
Last Quarter

Hourly Weather History & Observations

Time (EDT) Temp. Heat Index Dew Point Humidity Pressure Visibility Wind Dir Wind Speed Gust Speed Precip Events Conditions
12:53 AM 80.1 °F 81.9 °F 64.9 °F 60% 30.07 in 10.0 mi NNE 10.4 mph 16.1 mph N/A   Scattered Clouds
1:53 AM 80.1 °F 81.7 °F 64.0 °F 58% 30.06 in 10.0 mi NNE 12.7 mph - N/A   Scattered Clouds
2:53 AM 79.0 °F - 63.0 °F 58% 30.05 in 10.0 mi NE 12.7 mph - N/A   Mostly Cloudy
3:53 AM 79.0 °F - 63.0 °F 58% 30.04 in 10.0 mi NNE 12.7 mph 21.9 mph N/A   Scattered Clouds
4:53 AM 79.0 °F - 64.9 °F 62% 30.05 in 10.0 mi NNE 9.2 mph - N/A   Scattered Clouds
5:53 AM 79.0 °F - 62.1 °F 56% 30.06 in 10.0 mi NNE 12.7 mph - N/A   Partly Cloudy
6:53 AM 79.0 °F - 63.0 °F 58% 30.07 in 10.0 mi NNE 8.1 mph 17.3 mph N/A   Scattered Clouds
7:53 AM 79.0 °F - 64.0 °F 60% 30.08 in 10.0 mi NNE 9.2 mph - N/A   Mostly Cloudy
8:53 AM 81.0 °F 82.7 °F 64.9 °F 58% 30.09 in 10.0 mi NE 13.8 mph 19.6 mph N/A   Scattered Clouds
9:53 AM 82.9 °F 84.0 °F 63.0 °F 51% 30.11 in 10.0 mi NE 16.1 mph 23.0 mph N/A   Scattered Clouds
10:53 AM 82.9 °F 84.0 °F 63.0 °F 51% 30.12 in 10.0 mi NE 18.4 mph 23.0 mph N/A   Scattered Clouds
11:53 AM 84.9 °F 85.4 °F 62.1 °F 46% 30.12 in 10.0 mi NNE 16.1 mph 25.3 mph N/A   Scattered Clouds
12:53 PM 84.9 °F 86.1 °F 64.0 °F 49% 30.10 in 10.0 mi NE 16.1 mph 26.5 mph N/A   Scattered Clouds
1:53 PM 84.9 °F 85.4 °F 62.1 °F 46% 30.08 in 10.0 mi NE 19.6 mph 26.5 mph N/A   Scattered Clouds
2:53 PM 84.9 °F 85.9 °F 63.0 °F 48% 30.07 in 10.0 mi NE 16.1 mph 23.0 mph N/A   Scattered Clouds
3:53 PM 84.9 °F 85.0 °F 61.0 °F 44% 30.05 in 10.0 mi NNE 15.0 mph - N/A   Scattered Clouds
4:53 PM 82.0 °F 83.4 °F 64.0 °F 54% 30.05 in 10.0 mi NNE 13.8 mph - N/A   Scattered Clouds
5:53 PM 81.0 °F 82.2 °F 63.0 °F 54% 30.06 in 10.0 mi North 15.0 mph 23.0 mph N/A   Scattered Clouds
6:53 PM 80.1 °F 81.2 °F 62.1 °F 54% 30.08 in 10.0 mi North 9.2 mph - N/A   Scattered Clouds
7:53 PM 79.0 °F - 63.0 °F 58% 30.08 in 10.0 mi North 9.2 mph - N/A   Scattered Clouds
8:53 PM 79.0 °F - 64.0 °F 60% 30.10 in 10.0 mi NNE 10.4 mph - N/A   Partly Cloudy
9:53 PM 79.0 °F - 64.0 °F 60% 30.10 in 10.0 mi NNE 11.5 mph - N/A   Partly Cloudy
10:53 PM 79.0 °F - 64.0 °F 60% 30.11 in 10.0 mi NNE 10.4 mph - N/A   Scattered Clouds
11:53 PM 80.1 °F 82.1 °F 66.0 °F 62% 30.10 in 10.0 mi North 9.2 mph - N/A   Scattered Clouds